Location: *
(46.1006°N, 1.8394°E)
Time: 04:47:10
(UTC+00:00)

Cosmos 2360 Rocket - Pass Details

Date: 20 September 2019
Orbit: 833 x 846 km, 71.0° (Epoch: 21 October)

Event Time Altitude Azimuth Distance (km) Brightness Sun altitude
Rises 18:14:46 0° 328° (NNW) 3,403 6.0 -4.2°
Reaches altitude 10° 18:17:20 10° 321° (NW) 2,466 5.4 -4.7°
Maximum altitude 18:22:36 41° 253° (WSW) 1,198 3.7 -5.6°
Drops below altitude 10° 18:27:51 10° 184° (S) 2,457 4.6 -6.5°
Sets 18:30:24 0° 178° (S) 3,389 5.2 -6.9°
